Tracking 17925 objects as of 20-February-2017
HD Live streaming from Space Station
objects crossing your sky now

N-1 R/B

Track N-1 R/B now!
10-day predictions


NORAD ID: 8710
Int'l Code: 1976-019B
Perigee: 999.5 km
Apogee: 1,015.1 km
Inclination: 69.7 °
Period: 105.1 minutes
Semi major axis: 7378 km
RCS: 1.547 m2 (large)
Launch date: February 29, 1976
Source: Japan (JPN)
Launch site: TANEGASHIMA SPACE CENTER (TNSTA)

Note: This is a ROCKET BODY
Your satellite tracking list
Your tracking list is empty





NASA's NSSDC Master Catalog

Two Line Element Set (TLE):
1 08710U 76019B   17051.23370475 -.00000038  00000-0  15410-4 0  9991
2 08710  69.6758  83.7274 0010587  45.1956  22.0096 13.69837756 49143
Source of the keplerian elements: AFSPC